User: anonymous   Login
Location: STAR School
(35.3054°N, 111.2976°W)
Time: 05:41:45
(UTC-07:00)
Language:

UKube-1 - Orbit

View from above orbital plane
View from above orbital plane
View from above satellite
View from above satellite

Ground track
Ground track

The orbit data is extracted from the following two-line orbital elements,

1 40074U 14037F   19115.15115783  .00000248  00000-0  36918-4 0  9993
2 40074  98.4302 274.0365 0005990  43.0252 317.1436 14.84014247259566
Epoch (UTC): 25 April 2019 03:37:40
Eccentricity: 0.0005990
inclination: 98.4302°
perigee height: 612 km
apogee height: 621 km
right ascension of ascending node: 274.0365°
argument of perigee: 43.0252°
revolutions per day: 14.84014247
mean anomaly at epoch: 317.1436°
orbit number at epoch: 25956

The dashed part of the orbit path shows where the satellite is in the earth's shadow,  

DLR